Regional Weather Roundup
Issued by NWS

Home | Current Version | Previous Version | Graphics & Text | Print | Product List | Glossary On
Versions: 1 2 3 4 5 6 7 8 9 10 11 12 13 14 15 16 17 18 19 20 21 22 23 24 25 26 27 28 29 30 31 32 33 34 35 36 37 38 39 40 41 42 43 44 45 46 47 48 49 50
000
ASUS44 KMEG 021900
RWRTN
TENNESSEE HOURLY STATE WEATHER ROUNDUP
NATIONAL WEATHER SERVICE MEMPHIS TN
100 PM CST MON MAR 02 2015

TNZ002-004-019-021-049-052-054-088>092-022000-
WEST TENNESSEE

CITY           SKY/WX    TMP DP  RH WIND       PRES   REMARKS
MEMPHIS INTL   CLOUDY    42  30  62 NE6       30.39F
NWS MEMPHIS      N/A     41 N/A N/A MISG        N/A
JACKSON        PTSUNNY   46  29  51 E10       30.38F
DYERSBURG      CLOUDY    41  19  42 NE12      30.43F
UNION CITY     SUNNY     39  27  60 NE9       30.41F WCI  33
PARIS          SUNNY     39  23  52 E9        30.41F WCI  33
LEXINGTON      SUNNY     45  27  49 NE8       30.37F
SAVANNAH       CLOUDY    45  34  65 E9        30.36F
$$

TNZ008-025-027-028-033-062-065-066-022000-
NORTH MIDDLE TENNESSEE

CITY           SKY/WX    TMP DP  RH WIND       PRES   REMARKS
NASHVILLE      MOSUNNY   45  28  51 E5        30.41F
CLARKSVILLE    SUNNY     40  25  55 NE9       30.43F WCI  34
COOKEVILLE     PTSUNNY   39  34  81 VRB6      30.37F WCI  35
CROSSVILLE     PTSUNNY   38  31  76 NE9       30.35F WCI  31
$$

TNZ061-075-076-078-094-096-097-022000-
SOUTH MIDDLE TENNESSEE

CITY           SKY/WX    TMP DP  RH WIND       PRES   REMARKS
FAYETTEVILLE   CLOUDY    41  37  87 N9          N/A
TULLAHOMA      CLOUDY    39  34  81 NE10      30.36F WCI  32
WINCHESTER     CLOUDY    43  37  81 NE10      30.36F
COLUMBIA         N/A     45  37  76 NE8       30.36F
SHELBYVILLE    CLOUDY    39  36  87 NE9       30.39F WCI  33
$$

TNZ017-018-042-046-047-022000-
NORTHEAST TENNESSEE

CITY           SKY/WX    TMP DP  RH WIND       PRES   REMARKS
TRI CITIES     MOSUNNY   46  32  58 CALM      30.35F
ELIZABETHTON   MOCLDY    43  34  70 W7        30.33F
$$

TNZ012-013-036-069-073-074-022000-
CENTRAL EAST TENNESSEE

CITY           SKY/WX    TMP DP  RH WIND       PRES   REMARKS
KNOXVILLE      CLOUDY    45  36  70 NE10      30.36F
OAK RIDGE      SUNNY     44  33  65 NE8       30.40F
GATLINBURG     CLOUDY    41  37  87 CALM      30.36F
$$

TNZ083-085-099-022000-
SOUTHEAST TENNESSEE

CITY           SKY/WX    TMP DP  RH WIND       PRES   REMARKS
CHATTANOOGA    PTSUNNY   52  40  63 N12       30.35F
$$

SKY/WX REPORTED AS FAIR MEANS FEW OR NO CLOUDS BELOW
12 THOUSAND FEET.



USA.gov is the U.S. government's official web portal to all federal, state and local government web resources and services.